This demonstration page uses our WeatherBlox Daily Observations layout. Learn more.

Left ArrowRight Arrow

30.21309, -93.2044

Hourly Observations for July 24, 2021

Temp ( °F °C ) Dew Point ( °F °C ) Humidity (%) Winds ( mph kmh ) Pressure ( in mb ) Visibility ( mi km ) Precip ( " mm )
12:15 am 00:15 Clear 81 27.3 78 25.6 90 90 SSW 5 7 30.09 1019 10 16 0.00 0.00
12:35 am 00:35 Clear 81 27.2 78 25.3 89 89 S 3 6 30.08 1019 10 16 0.00 0.00
12:55 am 00:55 Clear 80 26.4 77 25.2 93 93 Calm 30.07 1018 10 16 0.00 0.00
1:15 am 01:15 Clear 82 27.8 78 25.6 88 88 WSW 6 9 30.07 1018 10 16 0.00 0.00
1:35 am 01:35 Clear 82 27.9 78 25.4 86 86 SW 7 11 30.07 1018 10 16 0.00 0.00
1:55 am 01:55 Clear 82 28 77 25.2 85 85 WSW 7 11 30.06 1018 10 16 0.00 0.00
2:15 am 02:15 Clear 83 28.1 77 25.1 84 84 WSW 9 15 30.06 1018 10 16 0.00 0.00
2:35 am 02:35 Clear 82 28 77 25.1 84 84 WSW 7 11 30.05 1018 10 16 0.00 0.00
2:55 am 02:55 Clear 82 28 77 25.2 85 85 WSW 7 11 30.05 1018 10 16 0.00 0.00
3:15 am 03:15 Clear 82 27.9 78 25.3 86 86 W 9 15 30.05 1018 10 16 0.00 0.00
3:35 am 03:35 Clear 82 27.9 77 25.2 85 85 WSW 8 13 30.06 1018 10 16 0.00 0.00
3:55 am 03:55 Clear 82 27.8 77 24.9 84 84 WSW 9 15 30.06 1018 10 16 0.00 0.00
4:15 am 04:15 Clear 82 27.7 77 24.9 85 85 WSW 9 15 30.06 1018 10 16 0.00 0.00
4:35 am 04:35 Clear 82 27.6 77 24.9 85 85 WSW 9 15 30.07 1018 10 16 0.00 0.00
4:55 am 04:55 Clear 82 27.6 77 24.9 85 85 WSW 7 11 30.07 1018 10 16 0.00 0.00
5:15 am 05:15 Clear 81 27.4 77 24.8 86 86 WSW 7 11 30.06 1018 10 16 0.00 0.00
5:35 am 05:35 Clear 82 27.5 77 24.8 85 85 W 8 13 30.06 1018 10 16 0.00 0.00
6:00 am 06:00 Mostly Clear 81 27 77 25 89 89 W 8 13 30.07 1018 10 16 0.00 0.00
6:51 am 06:51 Mostly Sunny 81 27 77 25 89 89 W 7 11 30.08 1019 10 16 0.00 0.00
7:55 am 07:55 Mostly Sunny 82 28 77 25 84 84 WNW 7 11 30.09 1019 10 16 0.00 0.00
8:55 am 08:55 Mostly Cloudy 84 29 75 24 74 74 WNW 8 13 30.10 1019 10 16 0.00 0.00
9:49 am 09:49 Partly Cloudy 86 30 75 24 70 70 NW 6 9 30.10 1019 10 16 0.00 0.00
10:50 am 10:50 Partly Cloudy 88 31 75 24 66 66 NW 5 7 30.10 1019 10 16 0.00 0.00
11:55 am 11:55 Mostly Sunny 90 32 73 23 59 59 W 5 7 30.09 1019 10 16 0.00 0.00
12:55 pm 12:55 Mostly Sunny 91 33 72 22 52 52 NW 6 9 30.07 1018 10 16 0.00 0.00
1:47 pm 13:47 Mostly Sunny 93 34 72 22 49 49 WNW 7 11 30.05 1018 10 16 0.00 0.00
2:55 pm 14:55 Mostly Sunny 95 35 70 21 44 44 W 6 9 30.04 1017 10 16 0.00 0.00
3:50 pm 15:50 Partly Cloudy 93 34 73 23 53 53 S 8 13 30.04 1017 10 16 0.00 0.00
4:50 pm 16:50 Partly Cloudy 93 34 72 22 49 49 SSW 12 19 30.02 1017 10 16 0.00 0.00
5:50 pm 17:50 Partly Cloudy 91 33 77 25 63 63 SW 14 22 30.01 1016 10 16 0.00 0.00
6:55 pm 18:55 Mostly Sunny 90 32 77 25 67 67 SSW 14 22 30.01 1016 10 16 0.00 0.00
7:55 pm 19:55 Mostly Sunny 88 31 77 25 70 70 SSW 12 19 30.01 1016 10 16 0.00 0.00
8:50 pm 20:50 Mostly Clear 84 29 75 24 74 74 SW 8 13 30.00 1016 10 16 0.00 0.00
9:50 pm 21:50 Mostly Clear 84 29 75 24 74 74 SW 9 15 30.01 1016 10 16 0.00 0.00
10:15 pm 22:15 Clear 84 28.7 76 24.5 78 78 SSW 5 7 30.01 1016 10 16 0.00 0.00
10:35 pm 22:35 Clear 81 27.4 77 24.9 86 86 SW 6 9 30.02 1017 10 16 0.00 0.00
10:55 pm 22:55 Clear 82 27.9 77 24.8 83 83 SW 5 7 30.02 1017 10 16 0.00 0.00
11:15 pm 23:15 Clear 82 28 76 24.7 82 82 WSW 8 13 30.01 1016 10 16 0.00 0.00
11:35 pm 23:35 Clear 83 28.1 76 24.5 81 81 WSW 7 11 30.00 1016 10 16 0.00 0.00
11:55 pm 23:55 Clear 82 27.9 76 24.5 82 82 WSW 6 9 30.00 1016 10 16 0.00 0.00

Powered by AerisWeather